GFSCGP_con_3kmhel_114.txt.gz
Helicity
157 200 269 231 176 164 161 127 96 99 83 73 62 58 47 46 54 57 53 56 44 73 84 113 64 -42 62 147 202 284 371 359 384 363 271 250 194 143 96 100 133 169 141 71
189 166 130 116 132 148 148 137 83 34 33 61 56 35 31 38 42 48 48 60 73 110 140 98 87 30 109 140 181 265 386 403 348 313 242 279 206 156 101 84 157 136 102 276
145 162 102 132 129 140 152 135 130 80 85 69 29 -16 -72 -57 25 47 51 37 81 126 94 116 101 107 114 142 180 266 407 404 340 262 268 275 233 206 175 136 131 118 116 184
82 62 101 119 118 115 94 112 84 86 78 38 18 -71 -120 -79 4 30 34 67 61 24 87 89 141 223 204 179 203 269 335 353 310 289 261 283 233 218 160 137 102 17 83 131
120 85 51 66 102 161 137 45 57 86 96 71 50 61 -68 56 -41 -68 3 9 25 37 85 88 78 186 220 222 258 284 281 292 276 265 258 276 232 180 157 155 142 115 71 67
96 120 98 34 78 56 146 146 116 135 116 61 45 73 -96 -50 -64 -30 -28 -0 -9 -51 -3 79 41 65 133 202 253 271 268 269 258 251 238 280 259 225 175 148 149 127 159 131
139 110 153 145 132 149 190 212 172 134 144 99 -7 57 73 18 -28 -20 -30 -23 -17 -6 14 35 104 41 153 133 175 242 260 283 269 253 200 242 215 225 182 151 121 148 93 142
224 161 78 119 134 99 150 190 202 144 117 36 51 33 50 9 13 19 4 3 22 38 18 28 102 76 105 133 116 245 238 260 282 271 215 203 172 193 153 142 135 97 132 166
195 138 126 103 132 151 166 186 161 197 173 119 27 56 47 69 120 93 66 41 37 71 41 -21 -10 132 48 106 108 188 206 230 268 270 229 175 140 143 132 119 66 69 86 89
162 143 131 159 129 139 119 119 196 222 139 109 71 25 9 188 126 123 96 37 6 -41 -95 15 29 43 153 114 126 166 155 137 219 238 206 149 108 98 87 61 24 26 41 96
195 194 165 99 143 151 164 172 168 150 202 182 107 73 127 193 165 137 107 17 -28 -32 -92 37 117 120 231 100 178 192 187 129 104 162 170 117 85 83 69 21 26 -18 10 76
186 192 182 172 179 99 146 154 166 167 156 183 165 105 83 99 76 43 39 13 -14 -45 -28 5 105 218 168 175 236 192 184 141 104 124 124 88 84 89 77 43 61 40 32 114
100 207 271 183 132 175 194 200 176 175 197 135 142 114 76 6 37 -0 4 30 -12 -54 -45 169 360 325 222 228 276 203 144 115 97 129 117 88 72 84 62 38 52 55 35 73
46 105 160 251 197 90 157 98 80 86 99 69 93 97 119 40 68 34 22 32 12 -18 -77 -19 417 213 146 238 282 171 142 125 102 113 94 99 70 74 58 39 41 49 44 39
20 17 58 59 37 75 108 47 24 70 52 69 72 74 81 62 46 50 66 76 -2 -47 -151 -77 235 351 281 171 189 204 131 100 117 111 78 88 75 78 79 54 37 41 49 39
45 15 50 43 33 43 75 77 75 88 87 92 50 26 57 -19 48 36 29 25 1 -55 -114 -102 80 320 340 204 221 217 148 120 124 111 96 111 85 88 71 63 57 48 43 65
60 58 41 -6 44 57 83 59 88 94 83 79 82 83 19 19 19 17 30 71 11 -14 -50 -39 17 275 328 211 262 288 176 130 127 106 90 104 94 91 91 91 88 82 128 136
43 74 86 71 89 97 72 121 104 43 57 111 103 75 55 40 24 61 100 79 32 2 -9 -3 -59 -19 43 51 125 211 255 188 125 107 93 93 89 87 105 132 189 198 214 211
132 130 110 107 92 78 56 58 47 63 1 34 40 47 60 51 70 81 106 80 20 26 15 -20 -22 -21 -13 -19 42 133 201 203 176 103 116 105 92 123 197 215 221 220 242 274
42 35 112 116 49 20 12 17 102 44 -83 1 130 75 83 85 53 68 57 48 34 48 23 -8 -3 -16 -2 6 16 43 209 147 216 92 55 82 142 149 176 220 259 281 304 312
5 97 219 185 115 49 61 18 -41 -33 -54 -44 184 102 38 39 37 48 65 52 33 39 13 -0 -9 -28 -9 41 53 26 172 206 218 190 257 198 159 201 229 258 280 309 322 350
54 37 50 82 145 18 23 50 13 -10 5 32 58 -11 49 46 38 44 64 45 21 23 9 -16 -22 -23 -7 37 54 60 129 186 176 260 279 306 300 319 329 382 361 387 412 444
149 129 54 42 31 9 17 -5 19 -26 -5 44 37 18 12 32 42 38 38 43 44 39 12 -5 -20 -4 19 44 96 93 110 143 241 284 338 309 353 429 384 446 479 484 516 564
107 168 53 34 37 19 4 7 4 -89 52 14 3 32 48 38 44 45 34 35 46 27 13 -15 2 27 31 62 82 130 141 135 248 375 427 450 416 448 426 412 445 511 453 596
16 71 232 41 124 36 15 85 67 17 18 81 47 53 53 34 26 19 3 17 19 19 14 13 22 43 61 75 101 124 147 173 233 302 409 455 523 550 541 433 417 520 566 640
-34 20 129 164 185 177 116 75 82 77 62 33 50 55 38 12 2 7 -4 10 15 1 7 19 53 68 76 80 109 133 125 167 244 288 305 372 475 528 584 647 691 605 409 458

GFSCGP_con_3kmhel_117.txt.gz
Helicity
182 197 246 199 161 133 133 125 110 102 105 111 71 59 62 46 60 53 36 20 36 57 77 90 104 105 76 44 51 69 54 138 235 312 390 335 298 254 225 207 132 132 122 172
168 185 126 99 122 114 108 99 106 88 29 78 63 68 49 58 57 19 18 44 50 81 94 101 120 103 61 77 45 34 40 128 180 299 337 320 256 244 176 175 140 115 132 172
152 145 52 117 116 108 102 82 97 93 124 74 69 10 -5 8 18 35 34 32 44 21 57 116 130 113 49 68 115 25 58 105 164 248 300 281 260 220 187 186 151 118 172 128
128 90 91 81 39 86 106 101 98 87 100 102 81 28 43 13 23 50 47 32 8 51 87 99 122 75 111 49 54 39 65 105 186 234 247 222 244 220 194 224 155 150 170 199
169 141 61 59 81 124 118 34 4 54 74 118 94 55 -21 39 65 5 27 42 7 -18 3 43 51 66 100 27 23 64 66 115 203 244 224 189 217 177 183 196 166 141 152 195
114 106 99 57 54 81 100 114 133 151 138 139 63 63 -21 22 -11 48 29 10 -18 -7 32 32 19 52 60 -6 -45 87 92 110 160 190 197 196 204 190 217 168 179 144 142 121
124 79 100 137 118 132 129 191 165 162 176 139 25 22 93 51 76 33 -6 23 46 47 46 23 34 55 73 12 -82 20 107 119 148 178 164 179 173 169 171 173 165 156 127 118
111 164 65 71 106 131 90 113 217 154 145 123 156 90 155 160 129 111 89 81 54 45 12 2 -18 23 33 11 -55 37 69 117 128 176 151 120 132 179 164 171 140 109 126 104
174 138 183 41 83 106 169 211 109 152 174 178 165 175 181 212 245 255 190 142 97 47 13 7 -21 -4 43 -7 -5 -8 72 94 143 175 159 112 120 159 166 168 133 123 93 60
78 107 43 167 131 88 113 146 223 255 209 184 107 108 128 215 200 176 164 110 62 29 -24 -40 -26 10 27 12 -26 -42 30 94 164 154 131 116 105 131 137 114 90 44 38 53
88 42 159 95 -35 162 186 212 200 196 232 190 149 140 83 90 108 149 107 57 12 -8 -18 -47 -57 7 101 123 34 -19 31 61 202 144 125 122 114 123 136 77 35 7 3 1
50 64 112 219 187 86 111 116 174 165 181 213 190 129 14 85 92 75 52 21 -11 -37 -27 -3 -21 -36 86 123 146 145 78 106 203 131 113 120 100 121 100 52 23 23 37 -2
97 106 130 123 105 215 283 240 223 176 169 168 142 96 89 69 83 79 29 -9 12 -20 -33 -36 -68 -76 22 108 184 162 179 149 168 164 106 122 78 109 58 28 28 34 48 53
27 69 90 143 190 183 240 203 171 156 172 154 132 111 65 28 10 17 40 20 36 9 -23 -23 -62 -84 -32 229 150 208 203 230 170 147 87 80 80 101 48 37 25 19 32 70
28 37 63 66 67 74 163 243 137 144 92 108 72 75 48 -5 -7 -23 -12 7 33 17 -16 17 -12 -105 -1 340 262 185 227 201 170 100 96 76 84 101 61 46 19 29 23 26
43 27 46 79 44 48 65 45 57 66 38 27 -2 9 -21 13 -8 -6 6 38 32 36 55 36 -30 -36 183 297 310 214 270 257 143 102 98 83 114 104 63 52 36 33 37 34
28 33 38 93 63 37 87 41 13 16 30 47 21 -13 10 10 17 26 48 49 60 79 85 47 -24 2 8 176 202 202 248 375 182 107 96 98 117 110 85 71 61 55 89 89
43 18 31 27 40 134 73 78 66 42 32 41 24 4 32 23 49 63 37 82 83 65 46 -4 -28 -22 39 -10 46 184 224 300 180 118 116 124 129 112 106 111 153 160 163 152
53 23 33 19 12 14 9 5 34 75 87 78 76 102 63 47 43 52 89 79 42 28 4 -21 -6 -22 -25 -19 -10 95 93 291 189 158 122 123 126 130 177 217 210 204 243 258
20 65 83 86 83 69 16 36 64 61 9 73 17 -15 55 57 39 23 79 67 29 23 13 -0 23 -19 -11 1 5 6 82 353 305 156 110 120 118 167 205 252 282 298 327 339
97 79 125 177 130 56 5 5 4 1 10 -32 -28 117 115 43 61 74 67 60 40 27 18 -6 -22 -38 14 -3 31 14 13 151 222 373 271 211 206 215 234 291 310 352 364 377
45 61 34 51 49 22 27 14 16 -4 -86 -22 94 157 99 64 48 74 55 38 25 38 1 4 -19 -24 20 14 24 27 29 80 121 236 346 331 269 259 291 313 311 356 398 419
114 157 78 40 31 20 -7 19 1 -30 -58 73 65 12 20 42 48 32 21 25 27 29 13 12 -2 -34 9 33 34 37 63 50 32 147 321 382 344 350 344 349 366 405 445 462
163 159 166 67 30 25 7 16 8 2 40 -0 24 38 47 34 24 10 20 23 17 17 2 -5 -8 -13 26 55 31 56 54 74 148 207 294 324 396 342 382 427 577 483 497 537
38 121 179 232 86 96 -8 29 53 67 87 64 41 59 54 28 22 13 17 32 13 3 -3 -16 -16 -21 26 63 65 69 86 58 111 212 320 325 408 475 505 525 442 489 437 427
-59 17 53 41 166 21 60 57 81 76 86 70 73 80 41 21 5 -6 2 21 7 2 -6 -14 -5 3 31 60 88 94 99 110 123 177 246 353 557 320 298 381 399 290 245 331

GFSCGP_con_3kmhel_120.txt.gz
Helicity
81 169 190 143 121 119 113 114 101 94 108 105 68 62 87 80 58 44 43 41 52 58 97 77 101 91 96 88 83 55 79 99 74 109 188 281 266 310 277 256 194 242 181 186
120 120 95 105 117 91 85 108 112 89 126 93 75 85 76 70 35 39 43 45 60 95 84 111 127 111 92 90 79 56 65 74 51 107 183 177 207 196 200 216 215 241 170 154
107 141 72 65 88 105 121 120 103 81 98 50 61 107 35 48 43 74 73 99 100 86 84 95 120 100 87 101 98 53 50 45 29 63 131 137 174 189 208 216 243 226 127 106
95 99 109 112 98 65 102 91 62 65 91 144 73 140 81 88 62 67 104 96 75 62 70 70 74 94 69 102 85 51 24 32 37 54 110 109 161 213 175 180 238 198 145 135
118 98 101 113 95 57 109 35 77 54 36 65 99 149 102 87 51 133 118 84 87 68 45 42 44 70 71 71 82 64 28 13 38 79 68 101 111 123 128 194 196 175 209 115
44 44 124 156 115 83 34 86 67 17 45 165 84 101 106 47 18 120 139 151 86 59 51 48 51 44 66 53 54 56 52 14 39 74 71 99 111 106 113 162 160 184 220 164
106 30 0 42 168 125 80 93 197 209 251 164 50 127 73 140 236 186 154 105 82 70 67 58 58 56 55 77 62 43 4 22 53 84 93 107 114 83 87 113 123 165 211 185
117 122 91 3 29 155 111 77 200 214 167 112 95 140 151 252 178 168 150 105 92 80 46 37 25 26 31 53 63 25 8 -24 31 109 112 109 105 104 92 109 111 139 182 158
188 108 91 117 90 3 94 169 57 119 132 200 99 162 158 142 186 174 161 150 126 85 42 15 2 -7 14 11 49 21 -5 21 29 76 121 121 96 73 85 119 86 138 135 122
106 128 81 26 211 159 61 54 91 141 157 99 64 64 84 116 166 200 200 166 126 87 43 14 -11 -11 0 -1 -18 62 -3 28 45 56 96 103 85 87 106 139 115 127 146 105
75 63 99 74 -165 -159 165 74 137 113 57 86 87 82 149 115 171 169 144 120 81 48 18 5 0 -10 -5 -19 -3 8 66 43 39 70 102 66 104 87 94 131 126 112 122 73
57 82 74 141 50 43 -53 72 140 216 99 104 123 93 85 117 109 105 89 64 23 -8 -15 7 -10 -22 -14 -35 -21 46 55 104 69 89 104 87 112 85 87 111 128 106 91 47
77 43 47 19 47 67 139 177 63 10 155 146 67 74 63 64 53 52 53 58 11 -18 -23 10 2 -11 -29 -38 19 37 86 154 152 110 114 121 111 93 74 98 113 98 100 67
24 31 36 76 99 127 119 151 276 185 160 161 112 88 32 66 38 65 51 37 13 -8 -12 11 2 5 -12 -44 27 58 125 110 122 167 130 141 101 87 67 85 120 97 94 60
18 8 22 41 95 87 45 188 193 253 241 244 161 158 121 108 87 60 31 30 14 4 9 24 45 40 23 5 19 110 138 82 181 219 149 132 107 91 74 93 131 112 85 53
37 4 9 11 57 75 111 57 69 153 131 102 96 130 49 40 32 21 24 26 13 22 66 75 87 63 36 -3 14 108 103 153 164 146 156 108 103 86 73 106 131 108 84 66
-1 16 16 17 23 81 93 119 59 88 97 54 112 75 56 34 21 19 27 36 35 93 106 101 95 59 30 1 17 91 89 162 138 194 170 111 79 87 71 107 126 125 118 108
33 14 2 -7 -1 22 24 68 59 97 79 50 29 18 31 41 55 49 -1 4 89 101 106 90 58 34 14 11 9 22 99 204 197 225 157 116 100 100 67 104 160 204 188 157
22 19 15 -33 -42 -18 13 20 37 71 111 103 94 104 106 106 89 7 114 200 168 126 86 47 15 -4 6 16 16 28 103 113 233 213 166 152 114 116 115 208 230 219 255 224
-33 20 46 53 10 31 16 26 23 33 40 103 126 115 65 45 80 153 141 127 102 81 51 42 9 -6 -9 9 22 26 -1 94 123 220 252 179 134 164 196 247 287 296 306 287
122 66 173 134 70 44 -17 16 2 -4 -8 -31 -93 -66 71 29 64 120 72 69 57 39 48 34 7 -17 -28 8 11 7 20 67 72 148 251 169 204 276 265 287 308 336 364 376
82 80 26 19 5 -9 31 1 19 8 10 -54 -11 58 61 20 34 53 55 86 52 40 38 22 -18 -36 -39 16 16 12 37 49 110 38 137 351 328 329 322 350 358 376 419 448
118 117 114 55 31 -8 -10 -4 12 9 8 27 78 17 25 39 37 34 33 39 44 24 23 22 6 -10 -35 16 31 47 64 68 48 52 247 418 459 382 359 388 412 442 430 453
86 133 165 148 -60 47 10 43 41 -7 29 98 42 19 22 31 31 27 31 24 32 19 17 10 15 -5 0 27 57 71 77 62 104 72 206 192 434 573 437 477 469 460 441 466
13 52 126 71 154 82 86 96 70 48 24 69 97 60 62 44 29 14 13 17 27 14 11 -4 -13 -25 -6 30 64 85 96 77 81 165 111 282 262 356 536 562 534 578 545 544
-14 15 45 37 52 57 44 23 43 74 73 59 62 74 65 41 34 25 3 -6 17 8 -2 -13 -26 -26 -16 21 60 87 111 81 56 126 193 178 282 381 385 484 554 497 351 468

GFSCGP_con_3kmhel_123.txt.gz
Helicity
70 98 140 97 74 67 127 144 148 105 46 46 61 49 26 16 54 44 33 40 46 34 24 22 69 119 99 76 65 66 71 79 122 166 169 161 197 273 240 180 99 219 212 214
54 102 58 44 33 62 60 93 115 88 61 74 74 124 51 37 48 60 23 29 33 32 50 53 79 109 82 76 64 66 62 60 69 117 137 127 158 294 282 183 141 157 199 275
47 21 28 37 60 87 65 90 89 82 51 95 66 112 84 47 30 39 40 24 38 97 80 102 96 72 66 100 90 62 58 64 58 65 162 225 206 186 155 150 138 132 174 226
77 43 38 47 98 62 111 40 33 54 81 115 37 80 57 35 40 33 31 74 105 91 113 114 86 92 78 83 80 87 78 76 70 47 107 164 166 147 182 179 138 130 142 172
55 87 45 88 81 38 99 51 61 93 101 105 85 141 81 45 38 59 47 104 86 144 122 103 90 93 83 62 62 74 74 78 88 41 107 133 124 65 68 90 112 130 155 152
43 13 39 63 43 40 41 73 53 82 165 138 62 73 69 50 57 73 68 105 164 120 95 80 67 51 64 42 42 52 72 72 80 47 61 94 52 20 118 159 170 129 169 174
101 41 20 10 35 29 53 75 188 213 224 209 28 67 93 73 50 95 118 94 106 97 74 73 69 58 55 40 44 52 45 48 55 65 45 60 47 85 134 128 111 146 202 172
147 146 62 200 125 47 29 48 135 182 168 52 32 109 28 20 117 163 134 124 93 57 81 60 49 36 23 27 24 64 72 30 51 48 63 61 77 133 115 80 103 145 152 168
131 116 62 46 95 109 45 100 20 19 77 199 170 29 188 151 168 150 131 103 118 89 51 66 36 25 25 39 24 19 59 68 45 42 46 60 93 99 93 76 99 92 174 153
43 77 53 41 -1 -1 121 92 82 110 163 140 98 66 141 173 170 135 190 167 95 114 80 58 28 28 24 37 25 0 21 46 51 35 52 54 73 118 83 74 92 97 123 163
12 18 24 42 22 78 -33 91 87 85 111 128 91 88 15 67 141 156 211 152 137 116 83 47 18 17 20 32 27 8 4 38 39 62 65 64 71 53 91 113 100 106 126 121
20 49 51 39 48 39 -31 2 6 47 6 68 84 75 265 203 88 116 140 110 105 69 64 33 18 16 47 47 33 7 10 11 52 37 73 83 89 64 120 147 106 124 119 130
51 44 32 -9 19 112 31 49 20 -1 -22 96 31 51 48 29 17 32 64 104 81 63 40 19 9 19 20 21 35 35 0 -2 37 67 61 100 102 80 96 119 108 124 127 103
22 22 22 49 49 -7 74 24 66 105 -1 -15 36 109 123 157 -5 38 53 57 66 52 33 28 32 24 26 84 36 36 22 -3 28 77 87 112 114 107 117 132 139 151 121 107
11 -3 16 36 51 40 7 21 -21 47 107 105 101 53 -23 -3 38 40 52 54 63 49 40 25 36 71 143 113 54 34 18 -14 55 68 116 115 112 100 124 138 149 143 120 109
13 19 -3 -6 0 28 41 26 -4 11 44 97 105 112 39 3 39 38 40 55 50 34 31 41 128 124 90 81 68 46 24 23 40 48 57 116 131 100 104 132 140 116 123 140
12 -3 -3 4 25 26 36 70 21 5 -8 21 103 75 31 44 37 76 76 57 43 22 99 120 138 96 76 67 64 55 30 30 16 85 23 133 137 81 79 140 146 140 165 186
28 20 3 -2 8 -32 -11 29 57 56 42 62 42 33 23 43 106 100 61 14 18 186 217 175 142 103 59 62 66 33 33 26 13 113 31 122 103 81 98 144 161 231 215 210
-9 -4 -5 5 -26 -2 27 44 101 106 73 42 57 91 112 164 90 54 218 299 323 298 204 138 98 53 47 57 55 28 29 33 27 103 47 159 155 83 106 184 283 260 274 253
59 85 16 68 2 5 31 -24 -25 34 53 121 147 122 107 104 17 117 247 248 213 165 163 115 96 50 56 64 52 30 24 28 58 52 78 181 173 108 173 264 288 343 320 295
144 56 106 74 68 39 81 49 12 -4 21 1 -23 -46 -55 -48 37 83 77 127 108 111 77 75 53 35 39 37 45 28 31 36 61 34 83 139 108 193 276 307 318 375 375 368
87 71 57 20 30 24 -8 39 -25 6 15 -87 -42 -62 -1 48 -5 12 41 63 107 98 66 58 40 23 17 13 0 10 39 58 90 97 107 60 170 262 373 376 375 402 421 415
47 67 148 55 -7 5 -42 -29 4 10 20 -7 -8 22 3 10 20 29 27 36 32 56 71 65 48 28 8 8 7 15 52 96 119 95 -11 109 293 423 393 366 419 483 458 461
33 33 77 105 55 86 44 64 20 15 34 32 25 14 30 21 29 24 23 19 27 39 48 49 42 33 23 -1 5 16 70 100 98 70 76 85 128 412 533 509 477 470 478 478
2 -15 42 59 51 83 59 55 43 40 24 28 34 60 50 38 25 27 30 23 16 24 26 31 27 34 36 9 10 54 98 97 99 85 132 106 158 224 555 699 635 568 525 428
-29 -41 -7 19 16 42 71 69 23 21 28 17 7 21 27 20 17 38 45 31 17 3 9 19 32 44 18 18 19 68 94 95 101 81 131 155 151 203 191 512 495 392 422 527

GFSCGP_con_3kmhel_126.txt.gz
Helicity
21 62 79 52 39 44 48 98 133 99 51 71 114 195 20 24 26 30 65 89 43 60 77 52 84 131 135 119 147 100 95 86 104 190 277 276 303 210 174 157 116 192 183 174
31 63 20 19 16 22 41 42 65 54 21 55 76 106 90 28 98 58 49 113 49 59 81 43 141 188 207 183 177 109 86 74 102 122 182 239 219 231 211 162 85 84 156 154
64 41 14 -2 27 49 44 73 73 48 34 53 95 115 121 65 69 73 -39 49 77 54 65 108 228 191 176 86 131 104 62 50 79 101 119 194 283 346 291 198 134 79 158 215
66 30 -1 65 53 20 64 38 25 42 69 137 57 92 76 66 66 48 72 74 54 83 179 195 159 115 107 161 100 80 95 89 81 101 94 265 294 304 247 156 140 129 142 167
42 68 72 74 45 28 93 50 37 68 102 116 106 163 75 51 16 13 88 55 67 189 172 191 161 205 146 123 40 62 84 92 124 151 133 148 200 171 153 128 106 130 90 137
11 -11 8 9 -3 20 38 85 100 72 138 165 114 109 35 54 1 72 28 112 197 272 243 262 160 91 83 60 62 69 51 59 78 91 107 152 162 126 104 85 91 124 124 139
81 105 19 12 35 44 0 57 117 182 209 218 90 88 127 57 -18 64 88 154 206 192 160 159 91 86 96 57 26 52 95 64 71 51 62 86 106 83 57 74 97 138 143 155
159 192 22 103 164 149 147 134 115 68 127 111 43 119 87 26 -15 119 33 298 251 201 176 66 81 77 64 42 16 2 61 138 51 38 51 62 66 66 48 118 130 143 168 158
218 198 69 50 30 33 71 76 112 97 51 50 63 93 19 89 70 196 245 216 151 181 142 33 81 33 45 43 32 12 29 69 112 -11 51 70 60 62 76 115 95 125 176 152
77 160 61 44 30 24 42 101 41 63 114 72 52 99 72 91 79 211 69 70 129 120 122 102 78 61 44 43 43 7 -11 46 57 93 54 73 67 37 84 115 132 133 146 152
53 71 50 34 43 47 55 31 74 77 61 99 56 25 96 103 114 102 212 187 192 185 136 151 59 51 61 78 37 21 7 -14 38 41 62 68 85 50 64 128 100 110 149 172
50 64 26 3 31 45 13 6 37 29 43 157 49 13 46 91 116 221 143 216 163 171 118 85 75 49 20 43 31 54 39 2 -10 25 46 73 72 100 66 83 105 116 169 180
49 33 2 26 -7 73 111 114 45 22 -33 31 94 66 267 65 85 72 128 71 56 86 83 89 79 60 42 42 132 98 15 9 -11 5 24 55 74 87 89 67 130 124 164 167
19 -3 7 4 44 -37 12 38 10 -23 -17 30 74 132 36 262 276 258 -40 20 67 82 82 89 66 35 118 195 178 91 6 -22 -8 -10 7 44 64 72 85 92 117 142 165 178
13 6 27 35 26 26 7 4 2 -7 9 18 39 18 36 81 167 24 11 40 33 43 85 68 56 102 164 168 150 85 31 4 -7 -7 -8 46 43 75 90 108 102 151 160 162
11 41 13 -4 27 15 31 57 35 1 -35 -23 -4 2 86 -25 6 38 49 55 67 69 49 49 125 174 161 97 63 58 51 22 13 2 -6 8 92 70 91 113 163 148 140 172
16 -2 22 14 31 21 13 21 45 -2 10 11 3 -27 37 2 42 124 141 157 111 52 79 199 248 251 210 160 136 68 50 24 22 21 8 10 91 61 73 93 174 144 140 255
18 10 -5 3 4 -2 -1 22 110 27 -30 -4 -10 11 61 185 149 70 137 180 184 228 245 288 285 274 224 177 107 52 46 35 31 32 14 19 65 107 91 95 160 231 260 286
9 0 16 48 44 65 41 66 53 72 96 56 94 159 191 142 64 69 146 183 194 202 235 237 223 214 157 134 91 49 41 39 36 35 3 23 44 119 86 129 347 328 338 305
84 12 81 44 23 -1 -5 148 112 61 7 105 94 49 27 84 9 51 96 132 151 170 173 126 112 111 110 88 59 50 41 34 44 40 26 13 17 103 40 84 424 403 372 342
97 59 149 25 24 70 107 77 49 7 24 33 16 -21 -36 -25 10 31 39 55 61 74 106 75 88 64 43 25 29 33 40 43 49 49 39 27 34 53 52 35 430 464 423 407
39 65 72 15 7 49 52 -11 -52 -18 13 -36 -57 -54 32 15 33 16 23 24 29 44 68 103 89 64 34 14 17 35 33 66 57 61 66 65 35 20 2 138 446 473 437 442
4 27 59 -4 -19 -5 -25 -53 18 -10 -9 20 54 29 21 2 8 8 1 15 25 36 43 67 58 72 66 28 10 14 28 49 60 76 90 78 34 35 210 225 453 467 424 451
61 -12 -6 59 11 18 -47 -32 8 22 28 36 30 21 34 8 9 6 14 21 31 31 18 33 48 49 39 26 15 10 12 43 67 74 104 86 45 80 217 325 307 465 423 439
-16 -19 -12 20 0 27 13 -4 23 14 -3 -10 -3 8 13 14 15 5 25 35 39 36 30 26 26 33 46 48 26 25 27 68 66 59 89 101 95 116 220 341 405 492 622 443
-1 -53 -47 -13 -8 20 29 -2 3 7 -6 -12 6 17 25 38 43 45 38 41 37 40 38 22 18 37 37 13 -6 -10 58 73 74 65 71 95 124 160 209 264 266 384 635 559

GFSCGP_con_3kmhel_129.txt.gz
Helicity
53 110 115 77 88 114 128 131 128 102 58 65 47 25 49 47 11 -8 77 173 187 100 95 132 125 174 256 227 222 197 235 182 197 237 327 314 255 236 194 144 138 159 235 253
92 123 84 68 77 80 96 103 98 68 60 69 84 107 63 49 55 -73 -0 54 97 105 81 111 159 300 308 294 247 176 193 189 154 176 210 272 266 255 220 208 143 162 200 223
104 56 75 50 64 87 69 116 105 93 84 61 86 97 150 148 88 -13 -22 -0 10 111 106 212 290 387 415 383 276 202 156 138 127 112 168 249 313 316 263 219 162 112 173 148
77 85 115 110 137 139 125 68 79 91 101 130 75 171 84 128 91 60 -16 -22 54 67 77 233 175 289 375 322 265 198 132 108 117 114 147 207 235 294 310 297 208 109 122 135
89 87 81 104 79 88 81 46 127 116 121 161 150 226 -81 69 123 115 41 97 47 106 83 243 398 342 233 193 202 144 85 107 77 90 150 153 197 260 323 328 256 133 130 104
80 61 73 68 60 52 38 101 94 138 137 186 160 200 84 71 99 106 23 71 46 190 34 307 347 190 202 197 153 143 85 94 95 102 75 97 101 164 204 198 163 134 149 131
113 122 105 82 130 74 133 201 199 170 256 235 171 207 174 182 63 7 8 65 148 384 404 267 351 314 166 130 101 105 76 88 71 106 62 52 86 95 130 118 117 116 123 122
186 165 256 99 123 182 147 118 124 199 196 215 135 164 117 76 21 106 19 170 357 344 384 308 271 320 213 164 72 33 52 81 109 86 43 27 55 59 84 96 113 106 115 121
203 222 135 110 94 109 149 159 44 57 82 67 243 156 50 -10 63 107 34 290 367 278 327 217 159 138 173 112 52 28 24 50 39 14 52 58 70 57 45 37 91 123 136 131
231 291 193 154 69 53 128 86 83 38 79 49 67 145 82 27 81 389 394 443 338 280 248 222 215 170 119 77 60 24 -13 -19 20 36 18 28 68 69 75 20 46 105 98 126
123 156 165 115 42 44 123 75 58 52 36 50 27 47 89 169 178 158 334 397 480 229 280 269 150 92 57 76 106 78 54 15 24 5 8 27 29 77 74 64 19 47 115 133
89 49 28 -76 -23 12 -0 44 10 38 78 86 21 -8 5 49 245 145 277 210 431 173 265 183 106 38 32 151 146 104 43 28 -2 -13 -5 7 22 47 89 68 -24 75 103 150
36 59 -15 -69 -21 59 82 55 -51 -45 -25 52 94 64 -54 -26 207 215 390 186 9 28 49 87 103 115 250 239 157 71 29 9 -23 -59 -46 -6 15 20 74 93 7 50 124 169
73 76 36 16 20 48 1 105 97 -22 23 34 18 5 -112 -76 255 272 187 122 237 19 38 48 73 166 161 162 168 112 54 -0 -40 -78 -62 -29 -8 18 39 87 85 15 87 176
45 -8 3 -1 -1 12 23 59 9 -3 13 67 46 -12 -59 -35 27 287 205 242 242 122 158 10 56 72 95 115 88 38 22 -31 -46 -33 -24 -19 -9 -13 29 55 108 87 62 193
49 46 21 8 46 39 6 15 39 62 60 -30 -26 -51 -66 -39 14 10 -0 67 48 157 163 166 137 109 67 45 30 -2 -42 -50 -33 -10 11 7 -4 -21 13 40 126 90 80 119
73 51 8 15 2 13 -2 43 39 103 21 34 -8 63 48 -16 45 55 74 58 59 72 90 85 100 66 43 33 36 -15 -34 -15 -2 4 21 14 -4 -16 7 53 72 74 108 196
28 8 -10 20 -5 -4 30 56 48 101 139 181 87 124 122 79 55 57 56 76 74 54 31 7 14 5 17 29 23 10 19 28 36 29 28 1 -3 -7 5 49 32 168 214 296
-39 -14 -1 7 20 49 -20 67 45 98 44 126 54 92 84 105 50 127 102 42 77 105 84 77 59 5 -5 -21 -15 4 36 42 36 39 13 3 -1 20 21 51 41 187 226 351
4 29 -21 1 7 6 26 182 24 8 33 65 33 52 127 113 104 98 137 137 185 164 146 149 144 77 -38 -36 -30 -10 32 28 38 49 13 -4 11 16 26 34 63 57 195 416
56 21 49 18 -4 23 50 150 112 24 -2 73 60 36 32 37 50 98 60 34 44 52 63 77 96 104 51 13 -11 4 9 11 29 41 9 -14 22 41 41 28 -6 58 191 562
-18 35 67 18 -11 8 -18 -30 -0 6 -7 27 52 20 10 19 -0 -2 9 17 12 -1 9 19 23 57 61 41 24 21 27 21 34 37 16 15 55 53 48 55 27 139 262 417
-16 -0 6 9 -10 -26 -8 -73 -21 24 50 21 10 -2 25 -4 7 19 12 9 13 14 9 6 -1 6 12 19 11 22 44 33 46 40 19 22 41 48 50 8 80 191 265 244
29 34 22 9 -40 -38 -57 -46 -19 20 13 13 -9 -8 -9 -5 -1 7 -0 -5 10 15 18 15 6 3 11 24 45 37 39 44 36 36 -4 21 33 38 47 37 99 179 213 254
63 39 17 4 -7 -16 -53 -29 -1 21 -2 -15 -15 2 10 5 15 17 26 22 26 38 35 25 23 22 21 17 20 41 53 64 47 46 34 36 46 47 50 90 92 179 225 181
26 43 -32 -17 -15 7 1 3 -20 -14 -10 1 13 14 16 8 13 18 22 18 17 20 28 32 29 26 19 -3 -5 -19 -0 -1 19 59 31 40 29 45 78 83 152 251 187 192